Home > Weather > Monthey > Past weeks

Flag for Switzerland Weather for the Past 2 Weeks in Monthey, Valais, Switzerland

Now
43 °F

Quite cool.


Feels Like: 43 °F
Forecast: 35 / 43 °F
Wind: 2 mph from Northeast

Location: Aigle

Current Time: Feb 14, 2016 at 7:16:06 PM

Latest Report: Feb 14, 2016 at 6:00 PM


Visibility: N/A

Pressure: 29.41 "Hg

Humidity: 81%

Dew point: 38 °F

Location of MontheyLocation

Historic Weather in Monthey — Graph

°F

Monthey Temperature Yesterday

Maximum temperature yesterday: 46 °F (at 2:00 PM)
Minimum temperature yesterday: 36 °F (at 1:00 AM)
Average temperature yesterday: 39 °F

High & Low Weather Summary for the Past Weeks

 TemperatureHumidityPressure
High57 °F (Feb 1, 2:00 PM)100% (Feb 5, 9:00 AM)30.60 "Hg (Feb 5, 9:00 AM)
Low31 °F (Feb 11, 7:00 AM)32% (Feb 7, 8:00 AM)29.15 "Hg (Feb 14, 8:00 AM)
Average43 °F79%29.96 "Hg
* Reported Jan 30 6:00 PM — Feb 14 6:00 PM, Monthey, Weather by CustomWeather, © 2016

Note: Actual official high and low records may vary slightly from our data, if they occured in-between our weather recording intervals... More about our weather records

Advertising

Monthey Weather History for the Previous 24 Hours

 ConditionsComfort  
Time TempWeatherWind HumidityBarometerVisibility
6:00 PM
Sun, Feb 14
43 °FQuite cool.2 mph81%29.41 "HgN/A
5:00 PM44 °FQuite cool.3 mph79%29.38 "HgN/A
4:00 PM44 °FLight rain. Overcast.12 mph77%29.35 "Hg14 mi
3:00 PM44 °FQuite cool.16 mph74%29.32 "HgN/A
2:00 PM45 °FQuite cool.13 mph75%29.32 "HgN/A
1:00 PM44 °FRain. Overcast.16 mph77%29.29 "Hg9 mi
12:00 PM45 °FQuite cool.6 mph89%29.29 "HgN/A
11:00 AM46 °FCool.5 mph79%29.21 "HgN/A
10:00 AM44 °FRain. Overcast.12 mph79%29.18 "Hg9 mi
9:00 AM44 °FQuite cool.18 mph76%29.15 "HgN/A
8:00 AM44 °FQuite cool.14 mph74%29.15 "HgN/A
7:00 AM43 °FPassing clouds.12 mph76%29.18 "Hg16 mi
6:00 AM43 °FQuite cool.13 mph76%29.21 "HgN/A
5:00 AM40 °FQuite cool.7 mph86%29.23 "HgN/A
9:00 PM
Sat, Feb 13
41 °FQuite cool.12 mph83%29.35 "HgN/A
8:00 PM40 °FQuite cool.10 mph91%29.35 "HgN/A
7:00 PM42 °FRain. Overcast.8 mph90%29.38 "Hg6 mi
Weather by CustomWeather, © 2016

See weather overviewHow to use our weather pages